リニア彗星

354P/LINEAR (2023)

English version
Home page
Updated on April 11, 2024

---------------------------------------------------------------------

・ プロフィール

・ 軌道要素

Epoch 2024 Mar. 31.0 TT = JDT 2460400.5
T 2023 Oct. 13.87987 TT                                 Rudenko
q   2.0046822            (2000.0)            P               Q
n   0.28446724     Peri.  132.78448     -0.05180966     -0.99692797
a   2.2897138      Node   320.07191     +0.88745729     -0.01898754
e   0.1244835      Incl.    5.25106     +0.45796868     -0.07598743
P   3.46
>From 321 observations 2010 Jan. 6-2024 Feb. 13, mean residual 0".9.
     Nongravitational parameters A1 = -1.23, A2 = -0.2587.

・ 光度変化

        H = 21.3  G = 0.15

---------------------------------------------------------------------

軌道要素はM.P.E.C. 2024-E157に掲載されたものです。
光度グラフはComet for Windowsで作成したものです。

---------------------------------------------------------------------

Copyright(C) Seiichi Yoshida (comet@aerith.net). All rights reserved.